FW0403 Weather Reports


Display with metric or nautical units.
time (UTC)temp
F
wind
direction
speed
MPH
gust
MPH
rain 1hr
in
rain 24hr
in
rain mn
in
humidity
%
barometer
mb
20260503230501 78 193 4.0 9.0 0.00 0.00 0.00 45 1018.4
20260503225946 78 101 5.0 9.0 0.00 0.00 0.00 46 1018.4
20260503225424 78 182 5.0 9.0 0.00 0.00 0.00 46 1018.4
20260503224912 78 173 4.0 8.0 0.00 0.00 0.00 49 1018.4
20260503224416 78 155 5.0 11.0 0.00 0.00 0.00 48 1018.7
20260503223908 78 165 6.0 11.0 0.00 0.00 0.00 47 1018.8
20260503223410 78 183 6.0 11.0 0.00 0.00 0.00 46 1018.8
20260503222853 78 192 5.0 11.0 0.00 0.00 0.00 48 1018.7
20260503222359 78 173 5.0 8.0 0.00 0.00 0.00 48 1018.7
20260503221240 78 174 6.0 12.0 0.00 0.00 0.00 46 1018.6
20260503220735 78 104 5.0 12.0 0.00 0.00 0.00 47 1018.7
20260503220236 78 175 7.0 12.0 0.00 0.00 0.00 48 1018.8
20260503215723 78 180 7.0 12.0 0.00 0.00 0.00 46 1018.8
20260503215229 78 175 7.0 11.0 0.00 0.00 0.00 48 1018.8
20260503214711 79 173 6.0 11.0 0.00 0.00 0.00 47 1018.8
20260503214206 79 188 5.0 9.0 0.00 0.00 0.00 47 1019.0
20260503213712 79 187 4.0 9.0 0.00 0.00 0.00 45 1019.0
20260503212547 79 176 5.0 11.0 0.00 0.00 0.00 45 1019.3
20260503212040 79 190 6.0 11.0 0.00 0.00 0.00 43 1019.4
20260503211529 80 174 5.0 11.0 0.00 0.00 0.00 44 1019.5
20260503210419 80 197 4.0 8.0 0.00 0.00 0.00 41 1019.5
20260503205914 80 174 3.0 10.0 0.00 0.00 0.00 42 1019.6
20260503204130 80 180 4.0 7.0 0.00 0.00 0.00 43 1019.7
20260503203627 81 157 4.0 7.0 0.00 0.00 0.00 43 1019.9
20260503202511 81 131 3.0 8.0 0.00 0.00 0.00 42 1020.1
20260503202002 80 168 4.0 8.0 0.00 0.00 0.00 40 1020.2
20260503201506 81 173 4.0 8.0 0.00 0.00 0.00 40 1020.2
20260503201006 81 135 3.0 7.0 0.00 0.00 0.00 40 1020.3
20260503200455 81 178 2.0 9.0 0.00 0.00 0.00 41 1020.2
20260503195949 81 155 2.0 9.0 0.00 0.00 0.00 40 1020.3
20260503195447 81 187 4.0 9.0 0.00 0.00 0.00 42 1020.4
20260503194934 81 92 4.0 9.0 0.00 0.00 0.00 42 1020.4
20260503193753 81 173 2.0 8.0 0.00 0.00 0.00 40 1020.6
20260503193234 81 140 3.0 9.0 0.00 0.00 0.00 42 1020.9
20260503192739 81 109 4.0 9.0 0.00 0.00 0.00 42 1020.9
20260503192228 81 175 3.0 9.0 0.00 0.00 0.00 40 1020.9
20260503191725 81 121 2.0 8.0 0.00 0.00 0.00 41 1020.9
20260503191207 80 106 2.0 10.0 0.00 0.00 0.00 41 1021.0
20260503190701 80 137 5.0 10.0 0.00 0.00 0.00 42 1021.1
20260503190207 80 113 6.0 10.0 0.00 0.00 0.00 41 1021.1
20260503185704 81 88 3.0 10.0 0.00 0.00 0.00 40 1021.2
20260503183903 80 136 4.0 10.0 0.00 0.00 0.00 41 1021.5
20260503183407 81 90 3.0 10.0 0.00 0.00 0.00 40 1021.7
20260503182858 81 101 2.0 11.0 0.00 0.00 0.00 39 1021.8
20260503182405 80 114 3.0 11.0 0.00 0.00 0.00 41 1021.7
20260503181849 80 100 5.0 11.0 0.00 0.00 0.00 41 1021.9
20260503181328 80 94 5.0 11.0 0.00 0.00 0.00 39 1021.9
20260503180812 80 99 3.0 9.0 0.00 0.00 0.00 41 1021.8
20260503175700 80 68 4.0 9.0 0.00 0.00 0.00 43 1021.9
20260503174524 80 96 6.0 10.0 0.00 0.00 0.00 41 1022.2
20260503172743 79 103 6.0 11.0 0.00 0.00 0.00 41 1022.2
20260503170923 79 157 4.0 11.0 0.00 0.00 0.00 42 1022.4
20260503170421 79 109 6.0 11.0 0.00 0.00 0.00 41 1022.4
20260503150736 77 66 6.0 11.0 0.00 0.00 0.00 43 1022.1
20260503150233 77 66 5.0 11.0 0.00 0.00 0.00 44 1022.0
20260503131148 75 59 4.0 8.0 0.00 0.00 0.00 46 1021.3
20260503130640 74 84 4.0 8.0 0.00 0.00 0.00 48 1021.2
20260503130137 73 86 3.0 8.0 0.00 0.00 0.00 51 1021.1
20260503110533 71 106 5.0 11.0 0.00 0.00 0.00 51 1020.4
20260503100258 70 12 3.0 5.0 0.00 0.00 0.00 53 1020.0
20260503090411 69 31 4.0 8.0 0.00 0.00 0.00 53 1020.2
20260503081324 69 45 4.0 8.0 0.00 0.00 0.00 54 1019.9
20260503080803 69 31 4.0 8.0 0.00 0.00 0.00 54 1019.9
20260503080252 69 80 4.0 9.0 0.00 0.00 0.00 55 1019.9
20260503072512 67 13 2.0 3.0 0.00 0.00 0.00 61 1019.8
20260503072013 67 7 2.0 3.0 0.00 0.00 0.00 61 1019.8
20260503071507 67 7 1.0 3.0 0.00 0.00 0.00 61 1019.7
20260503070319 68 7 1.0 3.0 0.00 0.00 0.00 61 1019.8
20260503060310 68 49 3.0 5.0 0.00 0.00 0.00 58 1019.9
20260503054725 68 20 2.0 7.0 0.00 0.00 0.00 58 1019.9
20260503053538 69 357 4.0 7.0 0.00 0.00 0.00 57 1019.8
20260503053042 69 32 4.0 6.0 0.00 0.00 0.00 57 1019.8
20260503050608 69 17 3.0 6.0 0.00 0.00 0.00 58 1019.5
20260503050059 69 40 3.0 6.0 0.00 0.00 0.00 58 1019.4
20260503045556 69 23 3.0 6.0 0.00 0.00 0.00 58 1019.4
20260503045044 69 44 3.0 6.0 0.00 0.00 0.00 58 1019.4
20260503044547 69 15 3.0 8.0 0.00 0.00 0.00 57 1019.4
20260503044041 69 41 4.0 8.0 0.00 0.00 0.00 56 1019.4
20260503043532 70 60 4.0 8.0 0.00 0.00 0.00 56 1019.4
20260503043011 70 31 4.0 8.0 0.00 0.02 0.00 55 1019.4
20260503042503 70 15 4.0 7.0 0.00 0.02 0.00 55 1019.4
20260503042006 70 16 4.0 7.0 0.00 0.02 0.00 55 1019.4
20260503041447 70 38 3.0 6.0 0.00 0.02 0.00 55 1019.4
20260503040948 70 18 3.0 6.0 0.00 0.02 0.00 55 1019.5
20260503035812 70 34 3.0 6.0 0.00 0.02 0.00 56 1019.1
20260503035313 70 66 3.0 7.0 0.00 0.02 0.00 56 1019.3
20260503034818 70 42 3.0 7.0 0.00 0.02 0.00 56 1019.2
20260503034318 70 73 4.0 7.0 0.00 0.02 0.00 56 1019.2
20260503033758 70 28 3.0 7.0 0.00 0.02 0.00 56 1019.1
20260503033250 70 35 3.0 6.0 0.00 0.02 0.00 56 1019.1
20260503032743 70 51 3.0 6.0 0.00 0.02 0.00 56 1019.1
20260503032241 70 61 3.0 6.0 0.00 0.02 0.00 56 1019.1
20260503031720 70 49 3.0 6.0 0.00 0.07 0.00 55 1018.9
20260503030547 70 55 3.0 6.0 0.00 0.07 0.00 54 1019.0
20260503030052 71 47 4.0 6.0 0.00 0.07 0.00 54 1018.9
20260503025554 71 61 4.0 6.0 0.00 0.07 0.00 54 1018.9
20260503025045 71 55 4.0 6.0 0.00 0.07 0.00 53 1019.0
20260503023917 71 59 4.0 6.0 0.00 0.10 0.00 51 1019.0
20260503023418 71 36 3.0 6.0 0.00 0.12 0.00 51 1018.8
20260503022924 71 48 3.0 6.0 0.00 0.12 0.00 51 1018.6
20260503022404 71 36 3.0 5.0 0.00 0.12 0.00 51 1018.5
20260503021849 71 59 3.0 5.0 0.00 0.14 0.00 52 1018.5
20260503021332 71 38 3.0 5.0 0.00 0.15 0.00 52 1018.6
20260503020821 71 47 3.0 5.0 0.00 0.15 0.00 51 1018.6
20260503020300 71 23 3.0 5.0 0.00 0.17 0.00 51 1018.6
20260503015802 71 34 3.0 4.0 0.00 0.19 0.00 51 1018.7
20260503015251 71 61 3.0 4.0 0.00 0.22 0.00 50 1018.6
20260503014745 71 42 3.0 5.0 0.00 0.25 0.00 50 1018.4
20260503014237 72 48 3.0 5.0 0.00 0.25 0.00 50 1018.4
20260503013745 72 71 3.0 6.0 0.00 0.27 0.00 49 1018.3
20260503012615 72 30 2.0 8.0 0.00 0.32 0.00 49 1018.3
20260503012109 72 2 3.0 8.0 0.00 0.32 0.00 49 1018.3
20260503011553 72 38 4.0 8.0 0.00 0.34 0.00 48 1018.2
20260503011057 73 25 4.0 8.0 0.00 0.37 0.00 48 1018.0
20260503010544 73 12 3.0 8.0 0.00 0.40 0.00 48 1017.9
20260503010051 73 16 3.0 5.0 0.00 0.40 0.00 48 1018.0
20260503004910 74 13 3.0 9.0 0.00 0.40 0.00 48 1017.8
20260503004412 74 353 3.0 9.0 0.00 0.40 0.00 48 1017.8
20260503003851 74 50 4.0 11.0 0.00 0.40 0.00 48 1017.7
20260503003343 74 11 6.0 11.0 0.00 0.40 0.00 47 1017.7
20260503001522 75 36 7.0 13.0 0.00 0.40 0.00 46 1017.7
20260503001021 75 30 7.0 13.0 0.00 0.40 0.00 46 1017.7
20260503000507 75 24 7.0 12.0 0.00 0.40 0.00 45 1017.7
20260503000009 75 77 6.0 13.0 0.00 0.40 0.00 45 1017.6
20260502235511 75 357 7.0 13.0 0.00 0.40 0.00 45 1017.6
20260502235014 75 26 7.0 13.0 0.00 0.40 0.00 45 1017.6
20260502234452 75 348 8.0 13.0 0.00 0.40 0.00 44 1017.6
20260502233957 75 44 8.0 14.0 0.00 0.40 0.00 43 1017.5
20260502233435 76 42 8.0 14.0 0.00 0.40 0.00 44 1017.5
20260502232936 75 17 10.0 16.0 0.00 0.40 0.00 45 1017.4
20260502232422 75 15 11.0 16.0 0.00 0.40 0.00 43 1017.4
20260502231921 75 52 11.0 19.0 0.00 0.40 0.00 42 1017.3
20260502231423 76 324 10.0 19.0 0.00 0.40 0.00 43 1017.3
20260502230923 76 53 10.0 21.0 0.00 0.40 0.00 43 1017.3